Location: ???????
(55.4362°N, 38.1183°E)
Time: 12:46:46
(UTC+00:00)

Cosmos 2219 Rocket - Pass Details

Date: 23 October 2021
Orbit: 826 x 848 km, 71.0° (Epoch: 01 December)

Event Time Altitude Azimuth Distance (km) Brightness Sun altitude
Exits shadow 01:51:06 - 327° (NNW) 2,742 4.6 -20.8°
Reaches altitude 10° 01:51:50 10° 328° (NNW) 2,465 4.4 -20.7°
Maximum altitude 01:57:29 70° 52° (NE) 900 2.4 -19.9°
Drops below altitude 10° 02:03:08 10° 136° (SE) 2,464 5.1 -19.1°
Sets 02:05:36 0° 139° (SE) 3,398 5.8 -18.8°
